Погода в Горохово

Россия / Курганская область     55°16′10″N   64°37′21″E
темп.,
°C
ветер,
м/с
пор.,
м/с
влажн.,
%
обл.,
%
осадки,
мм/ч
давл.,
гПа
погр.,
м
15 мая, сб
сб1523:00+20ююз49470 0.0 1023147
02:00+18зюз464892 0.0 102397
05:00+17з45635 2.9 102379
08:00+22зсз23465 0.1 1022222
11:00+28зсз453281 0.1 10221132
14:00+30зсз672411 0.0 10212445
17:00+29зсз56270 0.0 10202351
20:00+25зюз45402 0.0 101860
16 мая, вс
вс1623:00+21з4945100 0.0 1019140
02:00+19сз3754100 0.0 1020132
05:00+18з4663100 0.0 102087
08:00+23зсз584860 0.0 1020310
11:00+28зсз6734100 0.0 1020976
14:00+30зсз57285 0.0 10201813
17:00+31зсз68236 0.0 10193041
20:00+26з333643 0.0 101930
17 мая, пн
пн1723:00+22з333735 0.0 101923
02:00+20зсз234419 0.0 101919
05:00+18зсз33535 0.0 102042
08:00+24зсз34415 0.0 1020243
11:00+29зсз46285 0.0 10191851
14:00+31зсз68245 0.0 10183393
17:00+31зсз58245 0.0 10172789
20:00+23зсз7124090 0.0 1016203
18 мая, вт
вт1823:00+22з41039100 0.0 1016148
02:00+19сз4950100 0.0 1016129
05:00+17зсз365657 0.0 101684
08:00+23зсз4548100 0.0 1016275
11:00+27зсз4636100 0.0 10162066
14:00+27сз6835100 0.0 10152656
17:00+27сз78300 0.0 10142647
20:00+23з474353 0.0 1014102
19 мая, ср
ср1923:00+16всв487622 0.3 1017197
02:00+15ссз22756 0.4 101728
05:00+13с410895 0.4 1019272
08:00+16св677856 0.0 1021668
11:00+20св56505 0.0 10221399
14:00+22св453915 0.0 10221701
17:00+23св443529 0.0 10231722
20:00+19в334817 0.0 102336